Location: *
(53.9002°N, 27.5624°E)
Time: 07:27:38
(UTC+00:00)

Cosmos 1932 - Pass Details

Date: 12 November 2019
Orbit: 923 x 1007 km, 65.0° (Epoch: 13 December)

Event Time Altitude Azimuth Distance (km) Brightness Sun altitude
Rises 17:04:15 0° 314° (NW) 3,718 8.3 -24.6°
Reaches altitude 10° 17:06:49 10° 315° (NW) 2,775 7.5 -25.0°
Maximum altitude 17:13:23 86° 228° (SW) 1,015 4.5 -25.9°
Enters shadow 17:15:11 51° 143° (SE) 1,243 4.7 -26.2°
